Вернуться в каталог

STARLINK-38042

АктивенСвязьSSO
NORAD 69991·PAYLOAD·🇺🇸 United States

Запущен Jul 11, 2026 с Vandenberg Space Force Base

Loading…

Ближайшие Пролёты (ближайшие 24 часа)

TLE

СвежийSource: CelesTrak SupGP

Эпоха: Sep 14, 2026, 22:35 UTC

1 69991C 26159S   26257.94145833 -.01706100  00000+0 -31050-1 0  2579
2 69991  97.2848  99.6986 0001338  96.1950 353.2808 15.50409115    17

Отслеживайте STARLINK-38042 в реальном времени с AllMySat

Download on the App Store